Regional Weather Roundup
Issued by NWS

Home | Current Version | Previous Version | Text Only | Print | Product List | Glossary On
Versions: 1 2 3 4 5 6 7 8 9 10 11 12 13 14 15 16 17 18 19 20 21 22 23 24 25 26 27 28 29 30 31 32 33 34 35 36 37 38 39 40 41 42 43 44 45 46 47 48 49 50
000
ASUS44 KFWD 191610
RWRTX
NORTH TEXAS HOURLY WEATHER ROUNDUP
NATIONAL WEATHER SERVICE FORT WORTH TX
1000 AM CST THU JAN 19 2017

NOTE: "FAIR" INDICATES FEW OR NO CLOUDS BELOW 12,000 FEET WITH NO
SIGNIFICANT WEATHER AND/OR OBSTRUCTIONS TO VISIBILITY.

TXZ118-119-191700-
DALLAS/FORT WORTH METROPLEX

CITY           SKY/WX    TMP DP  RH WIND       PRES   REMARKS
DFW AIRPORT    CLOUDY    51  50  96 S13       29.82S
DALLAS LOVE    CLOUDY    51  48  89 S9        29.84S
FTW MEACHAM    CLOUDY    52  47  83 S15       29.83R
DAL-EXECUTIVE  CLOUDY    50  49  96 S9        29.84R
FTW-ALLIANCE   CLOUDY    50  48  93 S13       29.82R
FTW-NAS-JRB    CLOUDY    51  48  89 S15       29.84R
FTW-SPINKS     CLOUDY    50  48  93 S9        29.86R
ARLINGTON      CLOUDY    50  48  93 S10       29.84R
GRAND PRAIRIE  CLOUDY    50  50 100 S7        29.86R
ADDISON        CLOUDY    50  66 100 S7        29.85S FOG
MESQUITE       CLOUDY    52  50  93 S8        29.85F FOG
LANCASTER      CLOUDY    50  48  95 S10       29.87S
$$

TXZ091>094-102>105-117-120-121-131>134-191700-
NORTH CENTRAL TEXAS

CITY           SKY/WX    TMP DP  RH WIND       PRES   REMARKS
SHRMAN/DENISON CLOUDY   N/A N/A N/A S15       29.82F HAZE
GAINESVILLE    FOG       46  46  98 S13       29.82F VSB 1/2
BOWIE          CLOUDY    49  49 100 S12       29.78S FOG
BRIDGEPORT     CLOUDY    51  50  97 S9        29.82F
DECATUR        CLOUDY    60  60 100 S12       29.80F
DENTON         CLOUDY    48  48 100 S9        29.83R FOG
MCKINNEY       CLOUDY    51  51 100 S10       29.82F
BONHAM         CLOUDY    50  50 100 S8        29.84S FOG
GREENVILLE       N/A     52  50  93 S7        29.85F FOG
ROCKWALL       CLOUDY    51  51 100 S9        29.84F
TERRELL        CLOUDY    52  50  93 SW8       29.86S
WAXAHACHIE     CLOUDY    49  49 100 S12       29.86S
CLEBURNE       CLOUDY    50  50 100 S8        29.86S
GRANBURY       PTSUNNY   52  48  87 S12       29.85F
$$

TXZ083>090-098>101-113>116-127>130-139>142-154-155-191700-
WESTERN NORTH TEXAS

CITY           SKY/WX    TMP DP  RH WIND       PRES   REMARKS
WICHITA FALLS  SUNNY     50  46  86 S15       29.72F
WF-KICKAPOO    SUNNY     50  47  90 S12       29.74F
VERNON         SUNNY     49  42  74 SW13      29.70F
ABILENE        SUNNY     49  43  80 SW16      29.79S
ABILENE-DYESS  SUNNY     54  33  46 S16       29.77S
GRAHAM         SUNNY     52  52 100 S10       29.77R
BRECKENRIDGE   SUNNY     56  46  70 SW18G24   29.79R
CISCO          SUNNY     50  46  87 S13       29.80F
RANGER         SUNNY     50  46  87 SW9G18    29.82S
MINERAL WELLS  CLOUDY    49  47  93 S12       29.80F FOG
STEPHENVILLE   PTSUNNY   49  47  95 S5        29.86F
COMANCHE       SUNNY     50  48  92 MISG      29.84F
BROWNWOOD      PTSUNNY   46  46 100 SE8       29.86S
COLEMAN        SUNNY     48  45  87 SW8       29.83F
$$

TXZ143>147-156>162-174-175-191700-
CENTRAL TEXAS

CITY           SKY/WX    TMP DP  RH WIND       PRES   REMARKS
WACO           CLOUDY    52  50  93 SW8       29.87S
WACO-MCGREGOR  CLOUDY    53  50  89 SW8       29.87S
HILLSBORO      CLOUDY    51  50  97 S12       29.86F
CORSICANA      CLOUDY    53  52  96 S9        29.88S FOG
MEXIA          CLOUDY    51  50  97 S12G21    29.86S
HEARNE         CLOUDY    51  51 100 S6        29.92S FOG
CAMERON        CLOUDY    54  52  94 SW8       29.90S
TEMPLE         CLOUDY    53  51  93 SW9       29.88S
KILLEEN        CLOUDY    51  50  94 VRB6      29.86S
KILLEEN-SKYLRK CLOUDY    53  50  89 W6        29.88S
FORT HOOD      PTSUNNY   52  48  87 SW6       29.89S
GATESVILLE     MOSUNNY   54  48  82 SW6       29.89S
HAMILTON       MOSUNNY   52  51  97 SW8       29.86F
LAMPASAS       SUNNY     55  51  83 SW5       29.86S
$$

TXZ095>097-106>112-122>126-135>138-148>153-164>167-191700-
EAST TEXAS

CITY           SKY/WX    TMP DP  RH WIND       PRES   REMARKS
PARIS          CLOUDY    52  48  87 S7        29.85R
SULPHUR SPRNGS CLOUDY    52  52 100 S6        29.88R FOG
MOUNT PLEASANT CLOUDY    52  52 100 SE6       29.87S
GILMER           N/A     51  51 100 SE3       29.87S FOG
MINEOLA        CLOUDY    52  50  93 S3        29.86F
TYLER          FOG       52  52 100 SW6       29.86S VSB 1/2
LONGVIEW       FOG       54  54 100 S7        29.86S VSB 1/2
MARSHALL       CLOUDY    53  51  94 S3        29.88F
ATHENS         CLOUDY    50  50 100 S6        29.86F FOG
PALESTINE      FOG       51  51 100 S6        29.90R VSB 1/2
JACKSONVILLE   FOG       51  51 100 CALM      29.88F VSB<1/4
HENDERSON      CLOUDY   N/A N/A N/A SE6       29.87F FOG
CENTER         LGT RAIN  59  57  96 SW6       29.94R
NACOGDOCHES    CLOUDY    54  52  94 CALM      29.88F
LUFKIN         LGT RAIN  54  53  97 S5        29.91R
$$

SUPPLEMENTAL OBSERVATIONS (CENTRAL)

CITY           SKY/WX    TMP DP  RH WIND       PRES   REMARKS
CADDO GRASSLND   N/A     52  50  93 S6          N/A
MCGREGOR         N/A     54  52  94 SW8         N/A
TEMPLE           N/A     54  50  87 S8          N/A
$$

SUPPLEMENTAL OBSERVATIONS (WEST)

CITY           SKY/WX    TMP DP  RH WIND       PRES   REMARKS
MILLERS CREEK    N/A     52  48  87 SW15        N/A
POSSUM KINGDOM   N/A     55  50  82 S9          N/A
LBJ GRASSLAND    N/A     50  46  87 S12         N/A
GRANBURY         N/A     52  48  87 S13         N/A
HAMBY            N/A     52  45  76 SW17        N/A
$$

SUPPLEMENTAL OBSERVATIONS (EAST)

CITY           SKY/WX    TMP DP  RH WIND       PRES   REMARKS
LUFKIN           N/A     54  52  94 MISG        N/A
N SABINE NF      N/A     59  57  94 MISG        N/A
$$

SUPPLEMENTAL OBSERVATIONS ARE A COLLECTION OF AUTOMATED INSTRUMENTS
THAT ARE MAINTAINED BY A VARIETY OF FEDERAL AND STATE AGENCIES.
CERTAIN ELEMENTS...SUCH AS HUMIDITY VALUES AND SUSTAINED WIND
SPEEDS...MAY BE APPROXIMATED.





USA.gov is the U.S. government's official web portal to all federal, state and local government web resources and services.